Weather in Osinov Gay

Russia / Saratov Oblast     51°06′19″N   48°32′43″E
temp.,
°C
wind,
m/s
gust,
m/s
humid.,
%
clouds,
%
prec.,
mm/h
press.,
hPa
HPBL,
m
7 march, sun
sun701:00−7n3595100 0.0 1011118
04:00−10n339397 0.0 101223
07:00−13nw34900 0.0 101328
10:00−10w24900 0.0 1015109
13:00−8w6109195 0.0 1016448
16:00−7w598860 0.1 1016461
19:00−9ssw5118857 0.0 1015202
22:00−6ssw8168577 0.0 1013494
8 march, mon
mon801:00−4sw91786100 0.0 1010790
04:00−4sw101883100 0.0 1008754
07:00−4sw10188696 0.0 1007719
10:00−3sw10168696 0.1 1007690
13:00−2sw9149099 0.1 1008781
16:00−1sw91493100 0.2 1007982
19:00−1sw71591100 0.3 1007743
22:00−1sw71493100 0.3 1008609
9 march, tue
tue901:00−2wsw6109699 0.2 1008414
04:00−6wnw339597 0.3 100929
07:00−7nne2290100 0.0 100921
10:00−6ne3495100 0.3 1009166
13:00−4nne4696100 1.9 1008281
16:00−5n6996100 3.8 1007374
19:00−7nw61093100 1.9 1007452
22:00−12wnw479580 1.9 1010119
10 march, wed
wed1001:00−13wnw47962 0.0 1011115
04:00−12wnw499546 0.1 1012203
07:00−13wnw5109491 0.0 1014260
10:00−15nw6109384 0.1 1016350
13:00−14nw698993 0.0 1018461
16:00−14nw698895 0.0 1019651
19:00−17wnw51093100 0.0 1021228
22:00−18nw5109590 0.1 1023262
11 march, thu
thu1101:00−21nnw489699 0.0 1024162
04:00−26nw459458 0.0 102674
07:00−27nnw45940 0.0 102779
10:00−24nnw46920 0.0 1029215
13:00−20nw35910 0.0 1029262
16:00−19nw35910 0.0 1029258
19:00−22nw33920 0.0 103020
22:00−22wnw34900 0.0 103221